| time (UTC) | temp F | wind direction | speed MPH | gust MPH | rain 1hr in | rain 24hr in | rain mn in | humidity % | barometer mb |
| 20260508190046 | 65 | 125 | 2.0 | 3.0 | 0.00 | 0.00 | 0.00 | 79 | 1014.4 |
| 20260508185545 | 65 | 120 | 2.0 | 3.0 | 0.00 | 0.00 | 0.00 | 80 | 1014.4 |
| 20260508185053 | 65 | 133 | 1.0 | 2.0 | 0.00 | 0.00 | 0.00 | 79 | 1014.3 |
| 20260508184546 | 65 | 121 | 1.0 | 1.0 | 0.00 | 0.00 | 0.00 | 79 | 1014.3 |
| 20260508184045 | 66 | 121 | 1.0 | 3.0 | 0.00 | 0.00 | 0.00 | 77 | 1014.2 |
| 20260508183545 | 66 | 121 | 3.0 | 5.0 | 0.00 | 0.00 | 0.00 | 76 | 1014.2 |
| 20260508183046 | 67 | 76 | 0.0 | 0.0 | 0.00 | 0.00 | 0.00 | 76 | 1014.1 |
| 20260508182545 | 67 | 78 | 0.0 | 0.0 | 0.00 | 0.00 | 0.00 | 75 | 1014.0 |
| 20260508181545 | 68 | 85 | 0.0 | 0.0 | 0.00 | 0.00 | 0.00 | 75 | 1013.9 |
| 20260508181045 | 68 | 85 | 0.0 | 0.0 | 0.00 | 0.00 | 0.00 | 75 | 1013.9 |
| 20260508180546 | 68 | 85 | 0.0 | 0.0 | 0.00 | 0.00 | 0.00 | 74 | 1013.9 |
| 20260508175546 | 69 | 92 | 0.0 | 0.0 | 0.00 | 0.00 | 0.00 | 72 | 1013.8 |
| 20260508175045 | 69 | 91 | 0.0 | 1.0 | 0.00 | 0.00 | 0.00 | 72 | 1013.8 |
| 20260508174545 | 69 | 74 | 0.0 | 1.0 | 0.00 | 0.00 | 0.00 | 71 | 1013.7 |
| 20260508173545 | 70 | 74 | 0.0 | 1.0 | 0.00 | 0.00 | 0.00 | 70 | 1013.7 |
| 20260508173045 | 70 | 76 | 2.0 | 2.0 | 0.00 | 0.00 | 0.00 | 70 | 1013.6 |
| 20260508172553 | 70 | 100 | 2.0 | 3.0 | 0.00 | 0.00 | 0.00 | 70 | 1013.6 |
| 20260508172045 | 70 | 100 | 2.0 | 3.0 | 0.00 | 0.00 | 0.00 | 70 | 1013.6 |
| 20260508171545 | 70 | 111 | 0.0 | 1.0 | 0.00 | 0.00 | 0.00 | 70 | 1013.6 |
| 20260508170546 | 71 | 111 | 0.0 | 0.0 | 0.00 | 0.00 | 0.00 | 64 | 1013.5 |
| 20260508170045 | 71 | 111 | 0.0 | 0.0 | 0.00 | 0.00 | 0.00 | 66 | 1013.6 |
| 20260508165600 | 71 | 111 | 0.0 | 1.0 | 0.00 | 0.00 | 0.00 | 65 | 1013.6 |
| 20260508165045 | 71 | 111 | 1.0 | 2.0 | 0.00 | 0.00 | 0.00 | 64 | 1013.6 |
| 20260508164045 | 72 | 132 | 1.0 | 2.0 | 0.00 | 0.00 | 0.00 | 64 | 1013.6 |
| 20260508163545 | 72 | 116 | 2.0 | 3.0 | 0.00 | 0.00 | 0.00 | 64 | 1013.6 |
| 20260508163101 | 72 | 87 | 1.0 | 3.0 | 0.00 | 0.00 | 0.00 | 65 | 1013.6 |
| 20260508162545 | 72 | 87 | 1.0 | 3.0 | 0.00 | 0.00 | 0.00 | 65 | 1013.6 |
| 20260508162045 | 71 | 87 | 2.0 | 2.0 | 0.00 | 0.00 | 0.00 | 65 | 1013.6 |
| 20260508161547 | 71 | 92 | 2.0 | 3.0 | 0.00 | 0.00 | 0.00 | 65 | 1013.6 |
| 20260508160045 | 72 | 94 | 2.0 | 3.0 | 0.00 | 0.00 | 0.00 | 65 | 1013.5 |
| 20260508155548 | 72 | 105 | 2.0 | 3.0 | 0.00 | 0.00 | 0.00 | 66 | 1013.5 |
| 20260508155045 | 71 | 114 | 1.0 | 3.0 | 0.00 | 0.00 | 0.00 | 66 | 1013.4 |
| 20260508154548 | 72 | 130 | 2.0 | 3.0 | 0.00 | 0.00 | 0.00 | 66 | 1013.4 |
| 20260508154045 | 71 | 127 | 4.0 | 5.0 | 0.00 | 0.00 | 0.00 | 67 | 1013.4 |
| 20260508153544 | 71 | 119 | 2.0 | 5.0 | 0.00 | 0.00 | 0.00 | 67 | 1013.4 |
| 20260508152549 | 72 | 92 | 2.0 | 3.0 | 0.00 | 0.00 | 0.00 | 65 | 1013.4 |
| 20260508152044 | 72 | 5 | 2.0 | 3.0 | 0.00 | 0.00 | 0.00 | 64 | 1013.4 |
| 20260508151544 | 72 | 75 | 2.0 | 5.0 | 0.00 | 0.00 | 0.00 | 63 | 1013.4 |
| 20260508150545 | 74 | 5 | 2.0 | 3.0 | 0.00 | 0.00 | 0.00 | 63 | 1013.4 |
| 20260508150044 | 73 | 92 | 3.0 | 6.0 | 0.00 | 0.00 | 0.00 | 62 | 1013.5 |
| 20260508145545 | 73 | 43 | 3.0 | 5.0 | 0.00 | 0.00 | 0.00 | 63 | 1013.6 |
| 20260508145046 | 73 | 96 | 3.0 | 6.0 | 0.00 | 0.00 | 0.00 | 62 | 1013.7 |
| 20260508144545 | 73 | 89 | 5.0 | 7.0 | 0.00 | 0.00 | 0.00 | 62 | 1013.7 |
| 20260508143045 | 73 | 209 | 2.0 | 3.0 | 0.00 | 0.00 | 0.00 | 64 | 1013.9 |
| 20260508142045 | 73 | 265 | 2.0 | 3.0 | 0.00 | 0.00 | 0.00 | 64 | 1013.9 |
| 20260508141544 | 73 | 46 | 0.0 | 1.0 | 0.00 | 0.00 | 0.00 | 62 | 1013.9 |
| 20260508141044 | 73 | 46 | 3.0 | 6.0 | 0.00 | 0.00 | 0.00 | 63 | 1013.9 |
| 20260508140544 | 74 | 51 | 3.0 | 7.0 | 0.00 | 0.00 | 0.00 | 64 | 1013.9 |
| 20260508140045 | 74 | 69 | 3.0 | 5.0 | 0.00 | 0.00 | 0.00 | 63 | 1014.0 |
| 20260508135600 | 73 | 83 | 2.0 | 5.0 | 0.00 | 0.00 | 0.00 | 66 | 1014.0 |
| 20260508135045 | 73 | 82 | 4.0 | 7.0 | 0.00 | 0.00 | 0.00 | 65 | 1014.1 |
| 20260508134544 | 72 | 57 | 2.0 | 6.0 | 0.00 | 0.00 | 0.00 | 65 | 1014.1 |
| 20260508134044 | 72 | 41 | 1.0 | 5.0 | 0.00 | 0.00 | 0.00 | 65 | 1014.2 |
| 20260508133045 | 72 | 230 | 2.0 | 5.0 | 0.00 | 0.00 | 0.00 | 65 | 1014.3 |
| 20260508132544 | 72 | 183 | 2.0 | 3.0 | 0.00 | 0.00 | 0.00 | 64 | 1014.4 |
| 20260508132044 | 72 | 179 | 2.0 | 3.0 | 0.00 | 0.00 | 0.00 | 64 | 1014.4 |
| 20260508131544 | 72 | 114 | 2.0 | 5.0 | 0.00 | 0.00 | 0.00 | 67 | 1014.5 |
| 20260508131046 | 72 | 104 | 2.0 | 7.0 | 0.00 | 0.00 | 0.00 | 65 | 1014.5 |
| 20260508125544 | 71 | 132 | 3.0 | 6.0 | 0.00 | 0.00 | 0.00 | 65 | 1014.5 |
| 20260508125044 | 71 | 84 | 3.0 | 6.0 | 0.00 | 0.00 | 0.00 | 66 | 1014.6 |
| 20260508124049 | 71 | 131 | 2.0 | 5.0 | 0.00 | 0.00 | 0.00 | 67 | 1014.6 |
| 20260508123545 | 71 | 278 | 1.0 | 6.0 | 0.00 | 0.00 | 0.00 | 69 | 1014.5 |
| 20260508123044 | 71 | 90 | 2.0 | 3.0 | 0.00 | 0.00 | 0.00 | 69 | 1014.6 |
| 20260508121045 | 71 | 42 | 3.0 | 5.0 | 0.00 | 0.00 | 0.00 | 72 | 1014.6 |
| 20260508120059 | 70 | 64 | 3.0 | 5.0 | 0.00 | 0.00 | 0.00 | 72 | 1014.7 |
| 20260508115044 | 70 | 89 | 3.0 | 7.0 | 0.00 | 0.00 | 0.00 | 72 | 1014.7 |
| 20260508114544 | 70 | 55 | 5.0 | 9.0 | 0.00 | 0.00 | 0.00 | 71 | 1014.8 |
| 20260508114044 | 70 | 58 | 4.0 | 7.0 | 0.00 | 0.00 | 0.00 | 72 | 1014.7 |
| 20260508113543 | 70 | 40 | 3.0 | 5.0 | 0.00 | 0.00 | 0.00 | 72 | 1014.8 |
| 20260508112544 | 70 | 177 | 2.0 | 8.0 | 0.00 | 0.00 | 0.00 | 73 | 1014.8 |
| 20260508112044 | 70 | 113 | 3.0 | 8.0 | 0.00 | 0.00 | 0.00 | 73 | 1014.9 |
| 20260508111600 | 69 | 45 | 1.0 | 5.0 | 0.00 | 0.00 | 0.00 | 73 | 1014.9 |
| 20260508110544 | 69 | 120 | 3.0 | 7.0 | 0.00 | 0.00 | 0.00 | 73 | 1015.0 |
| 20260508110044 | 69 | 78 | 6.0 | 8.0 | 0.00 | 0.00 | 0.00 | 73 | 1015.0 |
| 20260508105547 | 69 | 84 | 3.0 | 6.0 | 0.00 | 0.00 | 0.00 | 75 | 1015.1 |
| 20260508105051 | 69 | 70 | 1.0 | 2.0 | 0.00 | 0.00 | 0.00 | 75 | 1015.2 |
| 20260508104543 | 69 | 54 | 3.0 | 5.0 | 0.00 | 0.00 | 0.00 | 75 | 1015.2 |
| 20260508104043 | 69 | 77 | 5.0 | 7.0 | 0.00 | 0.00 | 0.00 | 76 | 1015.2 |
| 20260508103545 | 69 | 118 | 3.0 | 6.0 | 0.00 | 0.00 | 0.00 | 76 | 1015.3 |
| 20260508103045 | 69 | 106 | 5.0 | 5.0 | 0.00 | 0.00 | 0.00 | 76 | 1015.3 |
| 20260508102543 | 68 | 55 | 4.0 | 5.0 | 0.00 | 0.00 | 0.00 | 75 | 1015.3 |
| 20260508102045 | 68 | 146 | 3.0 | 5.0 | 0.00 | 0.00 | 0.00 | 74 | 1015.3 |
| 20260508101544 | 68 | 62 | 2.0 | 6.0 | 0.00 | 0.00 | 0.00 | 75 | 1015.3 |
| 20260508101044 | 68 | 89 | 3.0 | 6.0 | 0.00 | 0.00 | 0.00 | 75 | 1015.3 |
| 20260508100545 | 68 | 80 | 2.0 | 3.0 | 0.00 | 0.00 | 0.00 | 76 | 1015.3 |
| 20260508100049 | 69 | 98 | 4.0 | 9.0 | 0.00 | 0.00 | 0.00 | 75 | 1015.4 |
| 20260508095543 | 69 | 109 | 7.0 | 14.0 | 0.00 | 0.00 | 0.00 | 73 | 1015.4 |
| 20260508095044 | 68 | 70 | 3.0 | 9.0 | 0.00 | 0.00 | 0.00 | 73 | 1015.4 |
| 20260508094544 | 69 | 78 | 5.0 | 12.0 | 0.00 | 0.00 | 0.00 | 72 | 1015.5 |
| 20260508094045 | 69 | 111 | 3.0 | 5.0 | 0.00 | 0.00 | 0.00 | 74 | 1015.5 |
| 20260508093543 | 69 | 115 | 6.0 | 9.0 | 0.00 | 0.00 | 0.00 | 74 | 1015.5 |
| 20260508093045 | 69 | 91 | 5.0 | 9.0 | 0.00 | 0.00 | 0.00 | 75 | 1015.6 |
| 20260508092544 | 68 | 122 | 7.0 | 12.0 | 0.00 | 0.00 | 0.00 | 74 | 1015.6 |
| 20260508092043 | 68 | 80 | 9.0 | 13.0 | 0.00 | 0.00 | 0.00 | 75 | 1015.6 |
| 20260508091545 | 68 | 112 | 8.0 | 13.0 | 0.00 | 0.00 | 0.00 | 75 | 1015.6 |
| 20260508090051 | 68 | 84 | 7.0 | 10.0 | 0.00 | 0.00 | 0.00 | 77 | 1015.4 |
| 20260508085544 | 67 | 83 | 4.0 | 8.0 | 0.00 | 0.00 | 0.00 | 80 | 1015.3 |
| 20260508085043 | 67 | 113 | 7.0 | 10.0 | 0.00 | 0.00 | 0.00 | 79 | 1015.4 |
| 20260508084043 | 67 | 98 | 9.0 | 10.0 | 0.00 | 0.00 | 0.00 | 79 | 1015.3 |
| 20260508083044 | 66 | 84 | 6.0 | 12.0 | 0.00 | 0.00 | 0.00 | 81 | 1015.3 |
| 20260508082043 | 65 | 83 | 7.0 | 13.0 | 0.00 | 0.00 | 0.00 | 82 | 1015.3 |
| 20260508081543 | 65 | 84 | 7.0 | 10.0 | 0.00 | 0.00 | 0.00 | 82 | 1015.3 |
| 20260508081043 | 65 | 101 | 4.0 | 12.0 | 0.00 | 0.00 | 0.00 | 83 | 1015.4 |
| 20260508080544 | 65 | 67 | 6.0 | 12.0 | 0.00 | 0.00 | 0.00 | 83 | 1015.3 |
| 20260508080043 | 65 | 117 | 5.0 | 9.0 | 0.00 | 0.00 | 0.00 | 84 | 1015.4 |
| 20260508075544 | 65 | 118 | 3.0 | 6.0 | 0.00 | 0.00 | 0.00 | 86 | 1015.4 |
| 20260508075043 | 64 | 91 | 6.0 | 8.0 | 0.00 | 0.00 | 0.00 | 86 | 1015.4 |
| 20260508074543 | 64 | 93 | 8.0 | 9.0 | 0.00 | 0.00 | 0.00 | 85 | 1015.4 |
| 20260508074044 | 64 | 76 | 4.0 | 7.0 | 0.00 | 0.00 | 0.00 | 86 | 1015.4 |
| 20260508073543 | 64 | 106 | 3.0 | 7.0 | 0.00 | 0.00 | 0.00 | 86 | 1015.4 |
| 20260508073044 | 64 | 114 | 5.0 | 7.0 | 0.00 | 0.00 | 0.00 | 86 | 1015.4 |
| 20260508072545 | 63 | 121 | 4.0 | 6.0 | 0.00 | 0.00 | 0.00 | 87 | 1015.4 |
| 20260508072043 | 63 | 120 | 4.0 | 7.0 | 0.00 | 0.00 | 0.00 | 87 | 1015.4 |
| 20260508071544 | 63 | 124 | 5.0 | 8.0 | 0.00 | 0.00 | 0.00 | 86 | 1015.3 |
| 20260508071043 | 64 | 106 | 3.0 | 9.0 | 0.00 | 0.00 | 0.00 | 87 | 1015.4 |
| 20260508065543 | 63 | 124 | 4.0 | 8.0 | 0.00 | 0.00 | 0.00 | 87 | 1015.3 |
| 20260508065046 | 63 | 80 | 4.0 | 8.0 | 0.00 | 0.00 | 0.00 | 88 | 1015.3 |
| 20260508064544 | 62 | 71 | 3.0 | 7.0 | 0.00 | 0.00 | 0.00 | 88 | 1015.3 |
| 20260508064043 | 61 | 89 | 5.0 | 9.0 | 0.00 | 0.00 | 0.00 | 88 | 1015.2 |
| 20260508063543 | 61 | 92 | 5.0 | 8.0 | 0.00 | 0.00 | 0.00 | 89 | 1015.3 |
| 20260508063043 | 61 | 102 | 6.0 | 12.0 | 0.00 | 0.00 | 0.00 | 89 | 1015.2 |
| 20260508062043 | 61 | 81 | 5.0 | 10.0 | 0.00 | 0.00 | 0.00 | 89 | 1015.1 |
| 20260508061545 | 61 | 106 | 8.0 | 10.0 | 0.00 | 0.00 | 0.00 | 88 | 1015.0 |
| 20260508061048 | 61 | 119 | 7.0 | 12.0 | 0.00 | 0.00 | 0.00 | 88 | 1015.1 |
| 20260508060543 | 61 | 109 | 6.0 | 10.0 | 0.00 | 0.00 | 0.00 | 88 | 1015.0 |
| 20260508055043 | 60 | 118 | 4.0 | 7.0 | 0.00 | 0.00 | 0.00 | 88 | 1014.8 |
| 20260508054543 | 60 | 106 | 2.0 | 5.0 | 0.00 | 0.00 | 0.00 | 88 | 1014.8 |
| 20260508053543 | 59 | 101 | 3.0 | 7.0 | 0.00 | 0.00 | 0.00 | 88 | 1014.7 |
| 20260508053043 | 59 | 96 | 3.0 | 7.0 | 0.00 | 0.00 | 0.00 | 88 | 1014.5 |
| 20260508051043 | 59 | 91 | 4.0 | 7.0 | 0.00 | 0.00 | 0.00 | 88 | 1014.2 |
| 20260508050550 | 59 | 86 | 9.0 | 13.0 | 0.00 | 0.00 | 0.00 | 89 | 1014.2 |
| 20260508050042 | 58 | 73 | 6.0 | 10.0 | 0.00 | 0.00 | 0.00 | 90 | 1014.1 |
| 20260508045543 | 58 | 71 | 5.0 | 10.0 | 0.00 | 0.00 | 0.00 | 90 | 1014.1 |
| 20260508045043 | 58 | 82 | 7.0 | 13.0 | 0.00 | 0.00 | 0.00 | 91 | 1014.1 |
| 20260508044544 | 58 | 67 | 5.0 | 12.0 | 0.00 | 0.00 | 0.00 | 91 | 1014.0 |
| 20260508044043 | 57 | 68 | 5.0 | 9.0 | 0.00 | 0.00 | 0.00 | 91 | 1014.0 |
| 20260508043043 | 57 | 66 | 3.0 | 7.0 | 0.00 | 0.00 | 0.00 | 91 | 1013.9 |
| 20260508042543 | 57 | 49 | 3.0 | 7.0 | 0.00 | 0.00 | 0.00 | 90 | 1013.8 |
| 20260508042042 | 57 | 56 | 3.0 | 6.0 | 0.00 | 0.00 | 0.00 | 90 | 1013.8 |
| 20260508041543 | 57 | 67 | 4.0 | 8.0 | 0.00 | 0.00 | 0.00 | 90 | 1013.8 |
| 20260508040042 | 57 | 65 | 3.0 | 6.0 | 0.00 | 0.00 | 0.00 | 90 | 1013.7 |
| 20260508035542 | 57 | 70 | 6.0 | 10.0 | 0.00 | 0.00 | 0.00 | 90 | 1013.7 |
| 20260508035044 | 57 | 53 | 6.0 | 8.0 | 0.00 | 0.00 | 0.00 | 90 | 1013.6 |
| 20260508034542 | 57 | 52 | 6.0 | 10.0 | 0.00 | 0.00 | 0.00 | 90 | 1013.6 |
| 20260508033544 | 57 | 36 | 5.0 | 9.0 | 0.00 | 0.00 | 0.00 | 90 | 1013.6 |
| 20260508033043 | 57 | 51 | 6.0 | 9.0 | 0.00 | 0.00 | 0.00 | 90 | 1013.6 |
| 20260508032042 | 57 | 64 | 7.0 | 9.0 | 0.00 | 0.00 | 0.00 | 90 | 1013.6 |
| 20260508031542 | 57 | 69 | 5.0 | 9.0 | 0.00 | 0.00 | 0.00 | 90 | 1013.7 |
| 20260508031043 | 57 | 69 | 5.0 | 8.0 | 0.00 | 0.00 | 0.00 | 90 | 1013.7 |
| 20260508030543 | 57 | 67 | 5.0 | 9.0 | 0.00 | 0.00 | 0.00 | 90 | 1013.6 |
| 20260508030042 | 58 | 68 | 5.0 | 10.0 | 0.00 | 0.00 | 0.00 | 90 | 1013.5 |
| 20260508025543 | 58 | 71 | 4.0 | 10.0 | 0.00 | 0.00 | 0.00 | 90 | 1013.6 |
| 20260508025042 | 57 | 82 | 5.0 | 9.0 | 0.00 | 0.00 | 0.00 | 90 | 1013.6 |
| 20260508024558 | 58 | 59 | 5.0 | 7.0 | 0.00 | 0.00 | 0.00 | 90 | 1013.7 |
| 20260508024042 | 58 | 67 | 6.0 | 10.0 | 0.00 | 0.00 | 0.00 | 90 | 1013.6 |
| 20260508023542 | 58 | 67 | 6.0 | 9.0 | 0.00 | 0.00 | 0.00 | 91 | 1013.7 |
| 20260508023042 | 58 | 75 | 5.0 | 9.0 | 0.00 | 0.00 | 0.00 | 91 | 1013.7 |
| 20260508022542 | 58 | 78 | 6.0 | 10.0 | 0.00 | 0.00 | 0.00 | 91 | 1013.7 |
| 20260508022042 | 58 | 72 | 3.0 | 5.0 | 0.00 | 0.00 | 0.00 | 91 | 1013.6 |
| 20260508021542 | 58 | 58 | 4.0 | 6.0 | 0.00 | 0.00 | 0.00 | 90 | 1013.7 |
| 20260508021044 | 58 | 65 | 4.0 | 9.0 | 0.00 | 0.00 | 0.00 | 90 | 1013.8 |
| 20260508020044 | 58 | 75 | 3.0 | 8.0 | 0.00 | 0.00 | 0.00 | 90 | 1013.9 |
| 20260508015057 | 58 | 68 | 5.0 | 10.0 | 0.00 | 0.00 | 0.00 | 90 | 1013.9 |
| 20260508014542 | 58 | 64 | 5.0 | 7.0 | 0.00 | 0.00 | 0.00 | 90 | 1013.9 |
| 20260508014042 | 58 | 75 | 9.0 | 13.0 | 0.00 | 0.00 | 0.00 | 90 | 1013.8 |
| 20260508013542 | 58 | 67 | 6.0 | 9.0 | 0.00 | 0.00 | 0.00 | 90 | 1013.8 |
| 20260508013042 | 58 | 68 | 7.0 | 12.0 | 0.00 | 0.00 | 0.00 | 90 | 1013.8 |
| 20260508012557 | 58 | 70 | 8.0 | 12.0 | 0.00 | 0.00 | 0.00 | 90 | 1013.8 |
| 20260508012042 | 58 | 51 | 5.0 | 12.0 | 0.00 | 0.00 | 0.00 | 90 | 1013.7 |
| 20260508011542 | 58 | 61 | 6.0 | 9.0 | 0.00 | 0.00 | 0.00 | 90 | 1013.8 |
| 20260508011042 | 58 | 76 | 6.0 | 8.0 | 0.00 | 0.00 | 0.00 | 90 | 1013.8 |
| 20260508010542 | 58 | 70 | 7.0 | 9.0 | 0.00 | 0.00 | 0.00 | 90 | 1013.7 |
| 20260508010042 | 58 | 68 | 7.0 | 9.0 | 0.00 | 0.00 | 0.00 | 90 | 1013.7 |
| 20260508005542 | 58 | 71 | 6.0 | 10.0 | 0.00 | 0.00 | 0.00 | 90 | 1013.7 |
| 20260508005050 | 58 | 69 | 5.0 | 7.0 | 0.00 | 0.00 | 0.00 | 89 | 1013.7 |
| 20260508004542 | 59 | 64 | 5.0 | 10.0 | 0.00 | 0.00 | 0.00 | 89 | 1013.7 |
| 20260508004043 | 58 | 66 | 5.0 | 9.0 | 0.00 | 0.00 | 0.00 | 89 | 1013.7 |
| 20260508003542 | 59 | 90 | 4.0 | 7.0 | 0.00 | 0.00 | 0.00 | 89 | 1013.8 |
| 20260508003042 | 59 | 75 | 3.0 | 6.0 | 0.00 | 0.00 | 0.00 | 89 | 1013.8 |
| 20260508002542 | 59 | 64 | 4.0 | 7.0 | 0.00 | 0.00 | 0.00 | 89 | 1013.8 |
| 20260508002043 | 58 | 75 | 6.0 | 9.0 | 0.00 | 0.00 | 0.00 | 90 | 1013.9 |
| 20260508001542 | 58 | 70 | 4.0 | 8.0 | 0.00 | 0.00 | 0.00 | 89 | 1013.8 |
| 20260508001043 | 58 | 63 | 5.0 | 9.0 | 0.00 | 0.00 | 0.00 | 89 | 1013.8 |
| 20260508000542 | 59 | 68 | 5.0 | 7.0 | 0.00 | 0.00 | 0.00 | 89 | 1013.8 |
| 20260508000044 | 59 | 65 | 5.0 | 8.0 | 0.00 | 0.00 | 0.00 | 89 | 1013.8 |
| 20260507235542 | 59 | 68 | 5.0 | 8.0 | 0.00 | 0.00 | 0.00 | 89 | 1013.8 |
| 20260507235042 | 59 | 73 | 4.0 | 8.0 | 0.00 | 0.00 | 0.00 | 89 | 1013.8 |
| 20260507234542 | 59 | 79 | 4.0 | 7.0 | 0.00 | 0.00 | 0.00 | 89 | 1013.8 |
| 20260507234042 | 59 | 60 | 5.0 | 7.0 | 0.00 | 0.00 | 0.00 | 88 | 1013.9 |
| 20260507233542 | 59 | 68 | 5.0 | 7.0 | 0.00 | 0.00 | 0.00 | 88 | 1014.0 |
| 20260507232542 | 59 | 74 | 5.0 | 7.0 | 0.00 | 0.00 | 0.00 | 88 | 1013.9 |
| 20260507232042 | 59 | 70 | 6.0 | 7.0 | 0.00 | 0.00 | 0.00 | 88 | 1013.9 |
| 20260507231542 | 60 | 78 | 5.0 | 7.0 | 0.00 | 0.00 | 0.00 | 87 | 1013.9 |
| 20260507231043 | 60 | 66 | 5.0 | 7.0 | 0.00 | 0.00 | 0.00 | 87 | 1013.9 |
| 20260507230542 | 60 | 70 | 4.0 | 8.0 | 0.00 | 0.00 | 0.00 | 87 | 1013.9 |
| 20260507230042 | 60 | 73 | 3.0 | 7.0 | 0.00 | 0.00 | 0.00 | 86 | 1013.9 |
| 20260507225542 | 60 | 50 | 5.0 | 12.0 | 0.00 | 0.00 | 0.00 | 86 | 1013.7 |
| 20260507225042 | 61 | 58 | 7.0 | 10.0 | 0.00 | 0.00 | 0.00 | 86 | 1013.8 |
| 20260507224542 | 61 | 64 | 7.0 | 12.0 | 0.00 | 0.00 | 0.00 | 85 | 1013.9 |
| 20260507224042 | 61 | 69 | 7.0 | 12.0 | 0.00 | 0.00 | 0.00 | 85 | 1013.9 |
| 20260507223558 | 61 | 72 | 6.0 | 12.0 | 0.00 | 0.00 | 0.00 | 85 | 1013.9 |
| 20260507223041 | 61 | 85 | 6.0 | 9.0 | 0.00 | 0.00 | 0.00 | 85 | 1013.8 |
| 20260507222542 | 61 | 82 | 6.0 | 14.0 | 0.00 | 0.00 | 0.00 | 85 | 1013.7 |
| 20260507221042 | 61 | 66 | 6.0 | 12.0 | 0.00 | 0.00 | 0.00 | 84 | 1013.5 |
| 20260507215542 | 62 | 71 | 5.0 | 8.0 | 0.00 | 0.00 | 0.00 | 81 | 1013.6 |
| 20260507215041 | 62 | 69 | 5.0 | 8.0 | 0.00 | 0.00 | 0.00 | 80 | 1013.6 |
| 20260507214542 | 62 | 67 | 5.0 | 7.0 | 0.00 | 0.00 | 0.00 | 79 | 1013.6 |
| 20260507214042 | 62 | 65 | 6.0 | 8.0 | 0.00 | 0.00 | 0.00 | 78 | 1013.6 |
| 20260507213542 | 62 | 67 | 5.0 | 8.0 | 0.00 | 0.00 | 0.00 | 78 | 1013.5 |
| 20260507213047 | 63 | 82 | 3.0 | 7.0 | 0.00 | 0.00 | 0.00 | 78 | 1013.4 |
| 20260507212541 | 63 | 94 | 4.0 | 8.0 | 0.00 | 0.00 | 0.00 | 79 | 1013.4 |
| 20260507212042 | 63 | 73 | 5.0 | 7.0 | 0.00 | 0.00 | 0.00 | 79 | 1013.4 |
| 20260507211543 | 63 | 69 | 3.0 | 5.0 | 0.00 | 0.00 | 0.00 | 79 | 1013.4 |
| 20260507211041 | 62 | 100 | 4.0 | 7.0 | 0.00 | 0.00 | 0.00 | 80 | 1013.3 |
| 20260507210041 | 62 | 62 | 5.0 | 9.0 | 0.00 | 0.00 | 0.00 | 80 | 1013.3 |
| 20260507205541 | 62 | 69 | 3.0 | 6.0 | 0.00 | 0.00 | 0.00 | 80 | 1013.3 |
| 20260507205041 | 62 | 83 | 2.0 | 3.0 | 0.00 | 0.00 | 0.00 | 80 | 1013.2 |
| 20260507204041 | 62 | 107 | 4.0 | 7.0 | 0.00 | 0.00 | 0.00 | 80 | 1013.1 |
| 20260507203042 | 61 | 106 | 0.0 | 1.0 | 0.00 | 0.00 | 0.00 | 80 | 1013.0 |
| 20260507202541 | 61 | 106 | 0.0 | 1.0 | 0.00 | 0.00 | 0.00 | 80 | 1013.0 |
| 20260507202041 | 61 | 106 | 0.0 | 1.0 | 0.00 | 0.00 | 0.00 | 79 | 1012.9 |
| 20260507201556 | 61 | 106 | 0.0 | 2.0 | 0.00 | 0.00 | 0.00 | 79 | 1012.9 |
| 20260507201041 | 62 | 106 | 3.0 | 3.0 | 0.00 | 0.00 | 0.00 | 77 | 1012.9 |
| 20260507200541 | 62 | 73 | 2.0 | 3.0 | 0.00 | 0.00 | 0.00 | 78 | 1012.8 |
| 20260507200041 | 62 | 15 | 0.0 | 0.0 | 0.00 | 0.00 | 0.00 | 77 | 1012.7 |
| 20260507195541 | 62 | 15 | 0.0 | 1.0 | 0.00 | 0.00 | 0.00 | 77 | 1012.7 |
| 20260507194545 | 63 | 15 | 2.0 | 2.0 | 0.00 | 0.00 | 0.00 | 76 | 1012.6 |
| 20260507194041 | 63 | 15 | 2.0 | 2.0 | 0.00 | 0.00 | 0.00 | 75 | 1012.5 |
| 20260507193041 | 63 | 15 | 1.0 | 3.0 | 0.00 | 0.00 | 0.00 | 75 | 1012.5 |
| 20260507192541 | 64 | 15 | 1.0 | 2.0 | 0.00 | 0.00 | 0.00 | 74 | 1012.4 |
| 20260507192044 | 64 | 15 | 0.0 | 0.0 | 0.00 | 0.00 | 0.00 | 74 | 1012.3 |
| 20260507191544 | 64 | 15 | 0.0 | 0.0 | 0.00 | 0.00 | 0.00 | 74 | 1012.3 |
| 20260507191046 | 65 | 15 | 0.0 | 0.0 | 0.00 | 0.00 | 0.00 | 73 | 1012.2 |
| 20260507190541 | 65 | 15 | 0.0 | 1.0 | 0.00 | 0.00 | 0.00 | 73 | 1012.2 |